TimeEST,TemperatureF,Dew PointF,Humidity,Sea Level PressureIn,VisibilityMPH,Wind Direction,Wind SpeedMPH,Gust SpeedMPH,PrecipitationIn,Events,Conditions,WindDirDegrees,DateUTC
12:56 AM,16.0,8.1,71,30.56,10.0,NW,5.8,-,N/A,,Clear,310,2013-01-25 05:56:00
1:56 AM,16.0,7.0,68,30.55,10.0,NW,4.6,-,N/A,,Clear,310,2013-01-25 06:56:00
2:56 AM,16.0,8.1,71,30.53,10.0,Calm,Calm,-,N/A,,Clear,0,2013-01-25 07:56:00
3:56 AM,16.0,9.0,74,30.53,10.0,NW,5.8,-,N/A,,Clear,310,2013-01-25 08:56:00
4:56 AM,17.1,9.0,71,30.53,10.0,WNW,6.9,-,N/A,,Clear,300,2013-01-25 09:56:00
5:56 AM,18.0,7.0,62,30.53,10.0,WNW,5.8,-,N/A,,Clear,290,2013-01-25 10:56:00
6:56 AM,17.1,7.0,65,30.51,10.0,WNW,3.5,-,N/A,,Mostly Cloudy,300,2013-01-25 11:56:00
7:56 AM,18.0,10.0,71,30.51,10.0,NW,3.5,-,N/A,,Mostly Cloudy,310,2013-01-25 12:56:00
8:56 AM,19.9,9.0,62,30.48,10.0,WNW,3.5,-,N/A,,Mostly Cloudy,290,2013-01-25 13:56:00
9:56 AM,21.9,8.1,55,30.45,10.0,SSW,8.1,-,N/A,,Overcast,200,2013-01-25 14:56:00
10:56 AM,21.9,3.9,46,30.44,10.0,SW,5.8,-,N/A,,Overcast,230,2013-01-25 15:56:00
11:56 AM,23.0,6.1,48,30.39,10.0,South,9.2,-,N/A,,Overcast,180,2013-01-25 16:56:00
12:56 PM,24.1,7.0,48,30.33,10.0,South,10.4,-,N/A,,Overcast,180,2013-01-25 17:56:00
1:56 PM,24.1,7.0,48,30.27,10.0,SSW,9.2,19.6,0.00,Snow,Light Snow,210,2013-01-25 18:56:00
2:56 PM,24.1,8.1,51,30.24,10.0,SW,11.5,21.9,0.00,Snow,Light Snow,220,2013-01-25 19:56:00
3:56 PM,24.1,12.9,62,30.22,8.0,SW,9.2,20.7,0.00,Snow,Light Snow,220,2013-01-25 20:56:00
4:47 PM,23.0,15.8,74,30.19,2.0,SSW,11.5,-,0.00,Snow,Light Snow,210,2013-01-25 21:47:00
4:56 PM,23.0,16.0,74,30.19,2.0,SSW,10.4,-,0.00,Snow,Light Snow,210,2013-01-25 21:56:00
5:35 PM,23.0,17.6,80,30.17,7.0,SSW,8.1,-,0.00,Snow,Light Snow,210,2013-01-25 22:35:00
5:56 PM,23.0,16.0,74,30.16,10.0,SSW,6.9,-,0.00,,Overcast,210,2013-01-25 22:56:00
6:41 PM,23.0,15.8,74,30.14,10.0,SSW,8.1,-,N/A,,Overcast,210,2013-01-25 23:41:00
6:56 PM,23.0,16.0,74,30.16,10.0,SW,5.8,-,N/A,,Overcast,220,2013-01-25 23:56:00
7:56 PM,23.0,16.0,74,30.14,10.0,WSW,4.6,-,N/A,,Overcast,240,2013-01-26 00:56:00
8:56 PM,23.0,16.0,74,30.12,10.0,WSW,4.6,-,N/A,,Overcast,240,2013-01-26 01:56:00
9:56 PM,23.0,16.0,74,30.12,10.0,Calm,Calm,-,N/A,,Overcast,0,2013-01-26 02:56:00
10:56 PM,24.1,16.0,71,30.12,10.0,Calm,Calm,-,N/A,,Overcast,0,2013-01-26 03:56:00
11:56 PM,24.1,16.0,71,30.12,10.0,Calm,Calm,-,N/A,,Overcast,0,2013-01-26 04:56:00